STARLINK-11274, 61001

Orbit data source: Space-Track

STARLINK-11274, 61001 is a payload satellite owned by SpaceX/Seattle (US) in LEO that was launched on Thu, 05 Sep 2024 UTC via an FALCON 9 launch vehicle from the Air Force Eastern Test Range (AFETR). Payload-class satellites include a variety of spacecraft equipped with specific instruments for various scientific and technological missions. These include communications satellites like Starlink; space stations such as the ISS; scientific satellites like the Hubble; Earth observation satellites from companies like Planet Labs, Umbra, and HawkEye 360; GPS; miniature CubeSats for education and research; and military/defense satellites.

Loading next visibility...
Identifier
61001, 2024-158M
Orbit
LEO
Country
Flag of USUS
Related business
Manufacturer
SpaceX/Seattle
Mission
Operational Commercial Communications
Bus & Motor
STARLINK V2MD, Unknown motor
Mass
960 kg wet, ~910 kg dry
Launch date (UTC)
2024-09-05 (1 year ago)
Launch vehicle
FALCON 9
Launch site
Air Force Eastern Test Range (AFETR)
Object type
Payload
Rocket body
Debris
Shape & HBR
Box + 2 Pan, 18.1 m
Radar Cross Section
36.964 m², Large (>1 m²)

Expand to show TLE details & history
Last TLE update: 1 day ago

TLE from 1 day ago
0 STARLINK-11274
1 61001U 24158M   25287.23546775 -.00000346  00000-0  20117-5 0  9991
2 61001  53.1583 283.1326 0001493  58.3242 301.7921 15.69700140 64580
Epoch: 2025-10-14T05:39Z
TLE epoch observation values (Epoch: 2025-10-14T05:39:04.413Z)
Latitude
-0.00006°
Longitude
175.33737°
Altitude
360.14 km
Speed
7.695 km/s
True Right ascension
18h 52m 31s
True Declination
0° 00' 00"
Sunlit
Object was in daylight at epoch
Visualization orbit readout
Latitude
Unknown
Longitude
Unknown
Altitude
Unknown
Speed
Unknown
Apparent Right ascension
Unknown
Apparent Declination
Unknown
Sunlit
N/A
Visualization observer readout
Local Sidereal Time
07:55:18
Azimuth
Unknown
Elevation
Unknown
Doppler factor
Unknown
Orbital elements
Apogee altitude
361.022 km
Perigee altitude
359.01 km
Semi-major axis
6,738.153 km
Eccentricity
0.00015
Inclination
53.1583°
RAAN
283.1326°
Arg. of periapsis
58.3242°
True anomaly
301.77756°
Mean anomaly
301.7921°
Eccentric anomaly
301.78483°
Mean motion
3.92403 °/min
Orbital period
91.74 mins
BSTAR
0.0000020117
Loading maneuver chart data...
Computing Atmospheric mass density...
Loading historical data...
Loading historical data...
Loading historical data...
Loading historical data...
Loading historical data...
Loading historical data...
Loading historical data...

Documentation

Showing up to 5 results
|